Wind_Speed
8 12 12 14 13 8 9 9 9 11 11 12 11 12 15 8 6 9 7 9 6 1 3 4 2 2 6 7 12 11 6 3 2 0 4 4 4 5 6 4 3 4 4 4 5 5 6 8 8 8 8 9 9 10 10 10 11 12 12 11 11 9 8 11 15 14 13 9 7 7 4 2 3 4 6 8 10 11 12 13 14 15 14 9 6 7
8 11 12 16 13 7 8 10 10 10 12 13 13 14 15 11 6 9 8 7 3 1 4 4 3 4 6 9 12 14 11 3 2 2 2 2 3 3 4 3 2 3 3 3 3 3 4 6 7 8 9 9 8 8 8 10 12 12 13 13 14 12 9 12 16 15 14 12 11 9 7 5 3 3 5 7 9 11 13 14 14 13 12 10 8 8
10 11 12 17 12 9 8 9 10 10 11 12 13 13 11 10 8 5 4 2 2 2 5 7 7 7 9 11 8 9 12 5 2 2 1 1 2 3 3 3 1 2 3 3 3 2 3 4 5 8 9 9 9 9 8 9 11 11 11 12 13 14 13 15 17 16 15 14 12 11 11 10 6 5 8 10 11 12 12 11 12 11 11 10 9 8
12 12 13 13 8 7 8 9 12 13 12 12 14 17 12 8 8 3 3 4 2 6 6 8 7 5 12 13 9 5 9 8 3 4 3 3 6 4 3 5 3 2 3 3 4 3 4 5 5 7 8 8 9 10 9 9 10 10 10 10 11 12 14 17 17 17 16 14 13 13 12 12 11 11 13 13 12 12 12 11 10 11 12 11 10 10
16 14 14 11 9 8 10 11 12 13 16 16 12 14 13 11 12 10 3 4 8 8 6 8 5 5 12 13 11 10 9 10 10 7 5 6 7 5 4 5 4 4 3 3 3 4 5 6 7 7 7 7 8 9 8 8 7 8 9 9 10 11 12 14 15 15 15 14 14 14 14 14 15 15 15 14 13 12 12 12 11 11 11 11 11 11
21 17 16 13 10 10 10 12 13 13 16 14 8 7 10 12 12 13 13 13 15 10 9 8 5 3 11 12 15 13 9 11 14 11 7 9 9 7 7 6 5 4 2 2 2 5 7 6 6 6 7 7 8 8 7 7 6 6 7 8 9 10 11 11 12 13 13 12 12 13 13 13 13 13 13 13 13 12 12 12 11 11 10 10 10 11
19 17 17 15 12 12 11 13 11 10 12 7 9 10 11 12 13 13 16 17 17 15 4 6 5 0 13 14 14 12 12 12 14 11 10 12 11 8 8 8 6 5 2 1 1 5 6 6 5 6 7 7 7 8 7 7 7 6 6 7 8 8 9 10 11 11 12 11 11 11 11 11 11 12 12 12 12 12 11 11 11 11 11 10 10 10
17 17 17 14 12 12 14 16 11 9 14 7 12 13 13 13 15 14 15 15 14 17 12 4 8 5 9 12 13 11 12 14 10 9 12 14 12 9 9 9 7 6 2 1 0 3 5 5 6 6 6 6 7 7 7 8 7 7 7 7 7 8 8 9 10 10 10 10 11 10 10 10 11 12 12 12 12 12 11 10 10 11 12 12 11 12
14 17 18 14 10 12 15 15 9 8 13 11 14 15 14 12 13 12 11 13 12 14 14 11 10 5 6 12 14 14 16 15 8 10 13 14 12 10 10 10 9 8 5 4 2 2 4 5 6 6 6 6 7 7 8 8 8 8 9 8 8 8 9 9 10 10 10 10 10 10 9 9 10 11 12 12 12 12 11 11 11 12 13 13 13 13
14 13 16 17 14 14 16 12 8 8 13 15 16 15 14 14 15 13 11 13 13 12 14 15 12 6 6 12 14 14 16 14 8 10 11 13 13 11 13 15 12 9 8 8 5 2 3 5 6 5 5 6 7 8 8 9 10 10 10 10 10 10 10 10 10 10 10 10 10 10 10 10 11 11 12 11 11 11 11 11 11 12 12 13 14 13
21 13 11 16 16 16 18 14 9 9 13 14 15 15 16 18 16 13 13 15 11 8 14 15 12 10 3 10 13 11 12 13 10 10 11 15 15 12 13 15 14 10 8 8 5 2 3 4 5 5 6 6 7 9 10 10 11 11 11 10 10 10 10 10 10 10 10 10 10 11 11 11 12 12 12 12 11 11 11 12 12 13 13 13 13 13
26 21 14 14 16 16 17 16 11 9 11 10 12 12 14 15 13 12 12 9 6 7 14 14 11 12 5 7 9 6 7 11 12 11 10 13 14 11 11 13 14 10 8 4 2 1 1 3 4 5 6 7 7 9 10 10 11 12 12 11 10 9 9 9 9 9 10 10 10 11 11 11 11 11 11 12 12 12 12 13 13 14 14 14 14 14
23 24 19 15 15 17 18 17 15 15 14 13 14 11 11 12 9 10 10 5 6 11 14 13 11 9 7 10 5 4 5 8 12 13 11 10 12 12 10 10 12 11 10 6 5 6 2 2 4 5 6 7 7 9 10 10 10 11 11 11 10 9 9 8 8 9 9 9 10 10 10 10 11 11 12 12 13 13 13 14 14 14 15 15 15 15
18 21 22 19 16 15 16 17 18 17 15 17 17 11 10 10 6 7 7 5 8 12 14 14 10 5 6 9 4 2 2 7 12 14 14 10 10 12 12 11 12 13 11 9 12 10 3 4 5 6 6 6 8 8 9 9 9 10 10 10 10 9 9 8 8 8 8 9 9 10 10 11 11 12 12 13 13 14 15 15 15 16 16 17 17 17
15 15 18 21 18 14 15 16 17 16 18 19 17 16 13 9 7 7 7 8 11 14 18 15 9 6 3 2 1 3 2 7 12 14 13 11 10 12 13 11 12 13 12 13 13 7 2 5 6 6 5 6 7 8 9 9 8 9 9 9 9 9 8 8 8 8 8 9 9 10 11 12 12 13 14 14 15 16 16 16 17 17 18 19 19 19
13 13 14 19 17 13 14 14 13 14 16 14 12 14 13 10 11 12 11 14 16 15 14 10 6 3 2 6 5 4 3 4 11 13 11 11 11 14 15 10 9 11 13 14 7 2 5 6 6 6 5 6 7 8 8 8 8 8 8 8 8 8 9 8 8 8 8 9 10 11 12 13 14 15 15 16 17 17 18 18 19 19 19 20 20 21
10 12 13 17 14 10 11 11 11 12 13 12 12 12 12 13 13 16 14 14 15 10 7 8 5 5 8 10 12 8 6 3 5 6 6 8 10 14 14 12 12 13 12 8 2 5 5 6 6 5 5 6 7 7 6 6 7 7 7 7 8 8 9 9 9 10 11 11 12 13 14 15 17 18 18 18 19 19 19 20 20 20 20 21 22 22
12 11 7 14 15 14 13 11 11 13 13 14 17 16 18 16 12 13 12 10 11 7 7 11 11 18 16 11 12 8 3 3 7 11 9 8 10 12 11 10 11 10 8 5 5 5 4 4 5 5 6 7 6 5 5 5 6 7 7 8 8 9 9 10 11 12 13 14 15 16 18 19 20 20 21 21 21 21 21 21 21 22 23 24 24 25
13 10 5 9 11 12 12 10 13 16 15 15 19 19 17 13 12 13 10 8 9 6 8 10 13 24 19 11 9 3 3 5 6 7 9 15 15 12 9 10 9 6 6 5 6 4 4 4 4 5 6 6 5 4 5 5 6 7 8 9 9 10 11 12 13 14 16 17 18 19 20 21 22 22 22 23 23 23 23 24 24 25 26 27 27 27
9 9 6 6 7 6 6 10 14 15 17 13 13 12 10 11 15 16 13 11 11 7 8 8 10 14 12 11 9 6 6 11 12 9 9 10 9 6 6 8 9 8 8 8 5 0 2 3 3 4 5 6 6 5 6 6 7 8 10 10 11 12 13 14 15 16 16 17 18 20 21 22 23 24 25 25 25 25 26 27 28 29 29 30 30 29
8 8 6 5 6 6 6 10 12 10 8 9 8 9 10 11 12 15 14 15 14 8 8 7 5 7 9 10 9 7 7 11 10 9 8 5 3 5 7 8 8 7 7 9 8 7 5 3 4 5 6 6 7 7 7 7 8 9 11 12 13 14 15 16 16 16 17 19 21 22 23 24 25 26 27 27 26 26 27 29 30 31 31 31 31 30
10 9 8 7 7 7 7 7 9 6 3 3 8 11 12 10 11 11 10 12 14 13 13 8 3 4 9 10 9 7 7 7 6 6 6 4 4 3 3 4 5 5 7 8 9 8 6 7 8 8 7 7 8 7 7 8 8 10 11 13 15 16 17 17 17 18 20 22 23 24 25 26 27 27 28 28 28 27 28 30 30 31 31 30 30 29
11 9 10 12 9 8 7 6 5 5 6 9 11 12 13 10 10 9 8 13 15 15 17 10 5 4 9 10 10 7 6 6 5 6 6 5 4 6 7 6 7 9 10 11 9 5 6 7 8 8 8 10 10 9 10 10 11 11 13 14 15 17 18 19 20 21 23 24 25 25 26 27 27 27 28 28 29 29 29 29 28 28 29 29 29 27
11 8 9 12 8 7 7 7 7 7 8 10 12 12 11 9 10 12 13 15 15 15 15 9 6 2 6 9 10 7 5 6 6 6 5 5 2 3 5 5 7 10 12 11 7 6 6 6 6 6 8 10 12 11 12 12 12 13 15 17 17 17 19 21 23 25 26 26 27 28 28 28 28 29 29 28 29 30 30 28 28 28 28 28 28 27
13 10 8 11 8 6 7 8 8 7 8 10 10 7 8 10 11 13 15 14 14 16 15 10 5 2 4 7 9 8 6 6 7 6 5 4 3 3 5 5 8 10 9 8 7 7 6 5 5 6 8 11 12 11 12 14 15 16 18 18 18 19 21 23 25 26 28 29 31 32 32 31 30 30 29 29 30 30 29 29 29 28 27 26 26 26
10 12 10 10 10 5 3 4 5 6 7 10 10 9 10 13 11 14 17 13 13 16 14 11 5 4 4 6 7 6 5 5 4 4 4 4 4 3 4 6 8 8 7 8 7 6 6 6 7 8 10 12 12 13 14 16 18 18 18 18 19 21 23 24 27 29 31 33 33 33 32 31 31 30 30 30 30 30 29 29 28 27 26 25 24 24
7 10 9 10 11 8 5 5 5 6 8 10 11 11 11 11 10 13 15 12 13 11 9 9 5 5 3 4 5 5 5 4 2 3 4 5 4 2 3 4 5 6 8 9 7 8 8 8 10 11 12 13 15 17 18 18 18 17 18 19 20 21 23 25 28 31 33 34 33 32 31 30 30 29 29 29 29 28 28 27 27 26 25 24 23 23
6 9 8 7 10 12 10 9 8 7 9 11 12 12 11 10 11 12 11 13 17 11 6 8 5 3 1 2 4 5 5 4 3 3 3 3 2 3 4 4 4 6 9 9 8 8 10 11 13 14 14 15 16 17 17 17 17 18 19 20 21 22 25 28 31 31 31 32 32 32 31 30 29 29 28 28 27 27 27 26 24 23 23 23 23 22
8 10 10 6 8 12 10 9 9 9 10 11 11 12 10 10 12 13 11 13 16 10 5 5 4 2 1 3 3 3 2 2 1 1 2 2 3 5 4 3 5 6 7 8 8 9 11 12 13 14 14 15 15 16 17 18 19 20 21 22 23 25 28 31 32 32 32 33 33 32 31 31 31 30 29 28 27 27 26 25 23 22 21 21 22 22
11 11 10 6 7 10 9 9 10 10 12 12 11 10 8 7 9 13 13 11 11 8 6 5 3 2 5 6 3 1 1 2 2 2 3 5 6 6 3 2 4 5 5 7 7 9 11 11 12 13 14 16 16 17 19 20 21 21 22 24 26 28 31 32 32 32 33 33 32 32 32 31 32 31 30 29 28 26 25 24 23 22 21 20 21 22
13 11 7 7 10 12 11 11 10 11 13 11 7 6 6 7 8 12 14 12 10 9 8 7 5 6 9 8 4 2 3 4 4 4 5 6 5 6 4 4 5 5 5 7 7 7 9 11 13 14 16 18 19 19 21 22 22 23 24 26 28 29 30 31 32 32 31 31 31 31 32 32 31 30 29 28 27 26 26 25 23 22 21 21 21 22
10 11 8 9 13 13 11 12 11 12 12 5 7 4 3 6 10 13 14 11 9 9 10 8 7 8 9 7 4 4 5 5 4 4 4 4 5 5 4 4 6 6 6 7 8 9 11 13 15 17 18 19 20 21 22 23 23 25 26 27 29 29 30 31 32 33 32 32 33 33 32 31 30 29 28 27 26 26 26 25 24 23 22 22 22 22
8 9 8 8 10 10 11 12 13 14 11 4 6 4 3 5 9 11 9 10 8 6 6 7 6 6 6 5 4 5 5 2 1 2 2 2 3 4 4 3 5 7 8 9 10 11 13 15 17 19 21 21 21 22 23 24 25 26 27 28 29 30 31 32 33 34 34 34 34 32 31 30 30 29 28 27 27 26 25 25 24 23 23 23 23 23
9 10 9 8 10 12 13 14 14 13 6 2 2 5 6 6 6 4 6 7 7 6 6 4 4 4 3 2 4 5 4 2 2 3 2 3 4 6 7 7 8 10 11 12 12 13 16 19 21 21 22 22 22 22 24 25 26 28 28 29 30 31 32 33 34 34 34 33 32 31 31 30 29 29 28 27 26 26 25 24 23 22 22 22 22 22
10 11 10 10 12 14 15 15 13 7 1 2 3 5 6 5 2 4 4 2 6 8 7 4 3 3 3 4 4 3 2 2 2 2 3 4 5 7 9 9 10 12 14 14 13 15 21 23 23 22 21 22 23 23 25 26 27 28 29 30 31 32 32 33 33 33 32 31 31 30 30 29 28 28 27 25 25 24 23 22 21 20 19 19 19 20
10 10 10 11 12 13 14 13 9 1 5 3 2 3 2 1 1 1 2 5 8 7 5 4 4 4 3 3 3 3 2 3 3 2 4 5 5 5 6 8 9 10 12 13 15 20 25 24 23 24 24 24 25 25 25 27 27 28 30 31 32 32 32 32 31 31 30 30 30 30 29 28 27 26 25 24 23 22 22 21 19 18 17 17 17 18
10 10 11 11 11 12 14 9 1 5 7 5 1 1 0 1 2 4 3 4 4 4 3 3 3 4 5 4 4 5 3 4 5 4 4 4 4 2 3 5 7 7 9 13 18 23 26 25 24 26 27 26 25 25 25 27 29 30 30 31 31 31 31 30 30 29 29 28 27 27 26 26 25 24 23 22 22 21 21 20 19 17 16 16 17 17
10 12 11 12 11 13 14 8 3 6 4 3 3 4 3 1 1 6 4 1 1 3 4 6 5 3 3 1 3 6 5 5 5 2 2 4 7 9 7 6 8 10 12 17 22 24 26 27 26 26 28 27 26 26 27 28 29 30 30 30 30 29 29 29 29 28 27 26 25 24 23 23 23 23 22 21 21 20 20 19 18 17 16 16 17 17
13 13 13 13 13 13 16 14 3 4 2 1 2 3 4 1 1 5 6 3 3 0 4 8 6 1 2 1 4 5 5 5 3 2 4 5 7 10 9 8 11 14 15 21 24 23 24 27 25 23 26 29 28 27 28 28 29 29 29 29 29 28 28 28 27 26 24 23 23 22 22 22 23 22 21 21 20 20 19 18 18 17 17 16 16 17
10 11 12 14 13 14 15 9 4 9 6 3 1 2 4 3 3 7 7 4 4 4 4 4 3 1 1 1 1 2 2 1 2 3 7 9 6 6 8 11 15 18 18 23 24 21 22 25 23 21 25 30 32 31 29 28 29 29 28 27 27 26 25 25 24 23 23 22 22 22 21 22 22 21 21 20 19 19 19 18 18 18 18 18 18 18
5 7 10 11 12 13 9 3 11 9 6 4 3 2 4 4 4 6 5 3 4 4 2 3 6 7 5 2 2 3 2 2 3 3 6 9 8 8 11 14 17 19 21 24 24 19 20 24 25 23 24 27 31 31 29 28 28 27 25 25 24 23 23 23 22 22 22 22 22 21 21 21 21 21 20 19 18 18 19 19 19 19 19 19 20 20
5 5 5 6 9 8 5 11 9 3 2 2 3 5 6 3 1 4 4 2 1 2 3 3 2 3 5 4 4 5 4 6 10 9 7 9 11 13 16 18 19 20 22 23 22 20 21 25 27 26 25 26 27 27 27 27 25 24 23 22 22 22 22 22 22 22 22 21 21 21 21 21 21 21 20 19 18 18 18 19 19 19 20 20 21 21
6 6 5 9 10 7 10 9 5 3 4 4 2 4 8 4 1 2 3 6 5 3 3 5 5 3 1 2 3 5 6 8 12 13 13 13 13 14 18 20 20 20 21 21 20 21 24 27 29 27 25 25 25 24 24 23 22 21 21 21 21 22 22 22 22 21 21 21 20 20 21 20 20 20 19 19 19 19 19 19 19 19 20 21 21 21
5 3 3 5 7 5 7 5 4 3 3 7 3 3 7 4 4 7 8 9 6 3 1 4 6 5 5 5 4 5 6 5 8 14 18 16 13 14 18 21 21 20 20 21 22 24 26 28 28 26 23 23 23 22 21 20 20 20 20 20 21 21 20 21 21 21 21 21 20 20 20 20 19 19 19 20 20 21 21 21 20 19 19 21 21 21
3 1 2 1 2 1 4 4 5 6 4 3 2 2 2 3 8 10 9 8 5 4 3 2 2 5 10 11 8 7 9 7 7 12 15 14 14 17 20 21 21 20 20 22 24 26 28 28 26 23 22 21 21 20 18 18 19 19 19 19 20 20 20 20 20 21 21 20 20 20 19 19 19 20 20 20 21 21 21 21 19 18 19 21 21 21
2 4 4 3 4 5 7 8 9 10 11 9 6 5 4 4 6 8 8 8 8 7 7 7 8 11 14 14 10 9 11 11 9 11 12 13 16 19 20 21 22 21 22 25 27 27 26 23 21 20 20 19 18 18 18 18 19 18 19 19 20 20 21 20 20 20 20 20 20 20 19 20 20 20 19 19 20 20 20 20 19 18 20 21 21 21
3 3 3 4 5 6 9 11 11 9 8 6 4 4 6 6 6 7 8 9 9 11 12 13 11 10 11 13 12 11 11 12 12 10 9 13 17 18 19 21 22 22 23 25 28 27 22 17 16 17 17 16 16 17 17 18 18 18 18 18 19 20 20 20 20 20 20 20 20 20 20 20 21 20 19 18 18 18 19 19 19 19 20 20 21 22
2 3 4 4 3 7 10 11 10 8 6 4 3 5 7 8 8 8 10 12 13 14 15 14 9 6 8 12 13 11 9 12 13 9 8 13 16 17 18 20 20 19 19 22 27 26 19 14 14 15 15 15 16 16 17 17 17 18 18 18 18 19 19 19 20 20 20 20 19 19 19 19 20 20 19 18 18 19 19 19 19 19 20 20 21 22
3 3 3 4 3 6 10 11 8 4 3 4 6 7 9 10 11 11 11 13 15 13 11 9 7 7 9 10 9 8 9 11 11 9 10 14 16 16 18 19 20 20 17 18 24 24 16 12 13 14 14 15 16 16 17 17 17 17 17 18 19 19 19 19 19 19 19 19 19 19 19 19 20 20 19 18 18 19 19 19 19 19 20 20 20 21
4 4 4 4 4 7 11 10 6 3 3 3 5 7 8 9 11 11 9 8 9 9 9 8 7 8 10 9 7 7 10 10 9 10 14 16 16 17 18 18 20 21 17 15 19 20 14 10 13 14 14 15 16 16 17 17 17 18 18 19 20 20 19 19 18 18 18 18 19 19 19 19 19 19 19 18 18 18 19 19 19 19 19 20 20 20
9 8 6 6 7 11 11 8 6 8 8 5 4 5 5 7 9 10 8 6 8 11 13 13 11 8 8 8 7 7 9 10 10 14 16 15 13 16 18 18 19 20 17 13 14 16 14 11 12 14 14 15 16 16 17 18 18 18 19 20 20 20 19 18 18 18 18 19 19 19 19 19 19 19 19 18 18 18 18 19 19 19 19 19 19 19
Wind_Direction
244 259 270 267 263 283 326 340 335 327 318 313 307 291 293 301 108 114 130 147 162 162 113 115 78 123 156 208 279 312 339 348 64 264 313 319 302 308 327 351 11 24 48 38 35 51 46 48 47 37 21 4 356 359 11 15 11 19 24 8 354 8 42 51 44 35 35 38 26 22 23 5 349 345 335 328 328 324 327 334 332 333 334 337 357 348
245 261 268 263 276 320 315 310 311 305 307 300 291 291 298 320 30 85 105 137 145 21 178 184 263 239 179 204 261 303 319 339 100 252 278 336 314 281 306 333 359 2 30 44 33 36 29 38 38 33 29 20 11 2 1 4 7 11 8 359 354 359 20 39 39 32 24 23 21 17 24 32 24 33 23 359 350 346 344 342 336 333 335 346 358 345
243 251 259 259 281 337 314 289 288 288 299 299 295 289 296 341 13 78 95 127 80 15 216 225 278 253 187 190 231 288 311 328 116 261 256 109 296 275 285 298 329 358 354 11 19 23 22 30 21 18 27 30 22 13 6 4 6 5 1 358 355 355 360 12 26 28 17 13 13 9 18 27 18 19 31 27 16 6 360 353 347 343 343 357 359 342
241 241 260 280 304 329 306 284 277 277 275 276 285 285 294 355 11 20 137 163 316 318 252 240 286 248 183 173 169 217 285 306 305 277 260 246 264 259 290 304 314 330 334 6 20 27 27 24 15 10 21 28 24 22 17 7 1 354 353 354 352 352 354 1 12 15 8 5 5 6 13 17 11 14 22 25 24 17 10 7 4 357 353 360 357 344
249 250 263 300 331 309 296 286 281 284 277 278 284 279 294 339 347 332 287 234 283 276 205 220 256 176 180 174 166 199 250 283 284 273 256 263 263 247 265 291 297 297 318 2 20 40 39 28 18 11 20 25 20 21 16 6 358 346 343 343 346 349 348 355 1 2 2 0 359 4 9 7 8 15 19 19 22 23 18 14 13 7 2 2 358 349
253 258 261 281 305 292 287 276 278 293 286 295 337 329 325 333 325 318 304 297 291 267 179 194 270 163 173 172 172 203 261 273 260 261 262 251 246 251 255 262 273 260 269 352 24 53 52 39 25 15 18 20 14 11 8 5 1 349 341 334 336 341 342 347 349 349 355 358 357 359 1 2 5 11 15 15 19 22 20 17 15 13 7 3 0 353
253 255 256 269 289 289 284 273 279 298 281 300 15 353 339 326 309 308 301 300 304 302 241 188 303 191 167 176 188 224 267 247 232 250 260 240 233 248 252 249 257 243 235 343 29 60 62 54 36 21 13 11 7 3 2 5 2 356 345 334 331 333 336 339 339 342 347 354 359 358 358 1 4 8 9 9 12 15 18 18 14 13 10 5 2 355
247 246 248 258 271 273 270 267 283 300 277 305 17 349 326 316 307 313 314 310 307 303 299 292 328 357 145 175 196 210 221 211 220 249 238 229 225 229 240 242 245 242 245 230 192 53 63 56 35 24 11 8 5 359 359 359 357 355 347 337 331 328 331 335 334 336 339 347 355 358 1 3 5 8 5 3 6 5 9 11 8 9 6 2 1 355
241 243 249 246 246 259 258 260 289 304 276 301 352 340 320 315 305 303 303 303 307 311 312 312 315 335 134 175 186 179 190 201 240 257 227 224 223 222 242 247 238 235 232 209 195 62 55 44 33 27 16 12 8 0 357 354 351 350 345 339 333 328 328 329 330 330 331 337 343 347 351 353 355 358 358 358 359 358 359 360 1 1 358 355 354 352
237 238 245 240 239 250 254 267 307 300 279 297 324 322 305 290 277 277 293 313 331 334 314 306 297 275 172 173 181 177 188 203 251 267 232 223 225 232 251 251 240 233 220 199 174 107 40 31 32 30 21 14 9 4 359 355 352 349 346 341 334 330 328 326 328 327 324 327 332 335 336 337 340 344 347 350 350 352 352 351 352 351 350 351 348 347
248 250 244 243 246 248 258 281 306 293 282 290 303 303 296 287 277 285 307 314 319 311 301 307 302 290 226 166 185 189 189 202 242 269 237 223 229 240 252 243 229 232 231 199 153 78 9 22 26 20 16 15 14 10 7 0 354 351 349 345 339 333 331 328 327 324 322 324 325 327 327 329 332 335 338 340 342 344 343 341 342 340 340 341 339 339
246 250 247 246 252 255 265 278 285 278 274 276 286 294 296 294 291 287 279 275 292 297 299 309 313 311 346 140 186 189 172 209 250 282 257 230 229 241 256 235 216 232 254 231 155 293 321 24 25 13 6 12 18 12 8 2 355 353 350 349 348 344 340 337 333 328 324 323 322 323 324 325 328 330 332 334 336 337 337 336 335 334 335 335 335 335
237 242 246 245 248 255 260 263 264 262 255 250 260 275 287 291 295 283 271 278 304 291 296 320 338 342 46 88 128 153 156 224 259 289 284 244 229 240 249 227 219 239 247 239 247 245 219 71 32 12 2 7 13 8 5 2 358 357 354 353 354 354 353 349 342 336 330 326 323 322 321 322 324 326 328 330 331 333 333 333 333 333 334 334 334 334
229 233 239 244 248 245 243 249 254 261 265 259 262 276 282 284 299 292 291 319 302 294 314 335 349 6 77 89 97 120 135 219 246 279 287 265 244 245 241 226 230 241 237 237 243 234 186 68 26 6 0 3 5 5 5 6 5 2 358 356 355 354 354 350 343 337 330 326 324 322 322 323 323 324 325 325 326 327 327 327 327 328 328 328 329 329
234 230 222 228 240 231 224 241 254 272 283 280 290 306 304 308 325 315 319 330 319 318 323 327 343 0 25 77 304 347 65 198 241 285 286 263 247 229 225 230 233 236 242 248 240 218 85 37 13 356 358 1 1 7 8 7 9 6 360 354 350 347 344 340 336 330 326 322 320 320 320 320 320 320 321 320 320 320 320 320 321 321 321 321 322 323
242 248 228 220 232 227 215 230 248 265 272 273 284 295 315 344 328 316 329 326 317 316 319 334 13 27 48 55 34 5 30 208 248 283 276 250 233 214 219 238 244 245 252 253 245 91 34 2 355 348 350 359 3 10 11 6 3 359 354 347 340 337 334 330 327 322 320 318 316 316 315 315 314 313 314 314 314 314 314 315 315 316 317 317 318 319
239 252 235 207 205 213 223 238 242 247 266 281 275 283 335 346 306 301 319 314 305 307 324 338 14 104 107 61 41 37 40 85 192 218 222 212 205 206 217 228 231 240 249 255 328 26 359 338 339 342 351 0 8 11 7 360 353 347 341 335 329 326 323 320 319 316 313 311 310 310 310 310 309 309 310 310 310 310 311 311 312 314 315 316 318 318
284 280 229 187 196 211 224 249 251 250 272 285 276 296 337 338 303 301 314 311 306 311 322 325 15 59 66 41 21 28 65 112 159 178 206 244 243 227 227 237 239 252 274 309 0 355 341 337 338 349 355 356 3 5 354 345 339 333 327 323 319 316 311 309 308 307 307 307 307 309 310 312 313 313 314 314 313 313 312 312 312 314 316 318 319 319
290 281 205 186 229 221 209 245 261 253 254 270 283 299 324 323 305 308 318 322 314 304 307 323 39 54 51 43 25 22 202 252 255 239 272 292 282 259 252 264 270 284 307 357 44 32 338 327 334 350 351 348 352 347 339 334 328 322 316 313 311 308 306 305 305 305 306 308 310 312 315 316 316 316 316 316 316 316 315 314 314 315 317 318 318 319
275 262 198 180 246 238 207 242 260 249 227 239 288 298 296 298 302 313 319 309 301 294 303 329 52 53 35 32 14 332 289 294 307 330 324 300 287 296 314 311 316 325 322 335 8 47 277 324 352 1 352 345 340 335 333 328 325 322 317 315 310 305 305 304 305 307 309 310 311 313 314 314 314 314 314 314 314 314 315 316 316 316 317 317 317 317
267 250 208 187 235 250 246 234 249 266 221 211 261 282 285 295 305 313 308 298 303 310 313 331 50 46 26 27 6 337 316 303 307 330 321 279 278 339 345 328 317 307 287 286 273 241 242 299 325 333 339 335 324 322 324 321 321 322 319 317 314 310 309 307 307 308 310 311 311 311 311 311 311 311 311 311 311 311 313 314 315 315 315 315 315 316
242 235 220 215 211 225 257 249 249 290 340 267 277 297 303 300 302 305 298 309 321 314 313 330 81 53 26 25 11 355 335 318 304 303 295 261 241 238 226 233 225 198 199 213 221 234 262 286 296 307 318 316 308 308 312 313 318 319 316 316 316 312 309 307 307 308 310 310 309 310 310 310 310 310 310 311 309 309 311 313 313 313 313 312 312 312
243 263 252 233 216 220 264 307 300 297 316 299 286 290 292 291 305 312 313 326 326 309 316 346 88 62 15 16 15 1 331 326 319 295 277 257 240 211 207 216 203 189 187 189 198 239 270 277 289 305 315 309 302 304 308 310 313 313 313 313 313 311 309 308 308 309 311 311 310 311 311 311 311 312 312 312 311 311 312 314 314 313 312 311 310 309
241 263 264 254 242 219 235 272 284 277 283 284 279 279 288 306 317 320 321 324 323 318 333 14 92 76 13 11 8 4 347 336 329 311 283 270 266 201 210 227 214 201 190 185 203 242 259 274 294 309 310 302 302 305 306 306 309 309 309 308 305 304 306 309 311 312 313 314 314 314 314 314 314 315 315 314 314 315 315 316 316 315 313 311 309 307
229 226 242 270 266 210 215 247 264 280 286 281 287 302 319 322 318 319 322 323 326 336 360 43 85 92 55 18 1 2 352 327 316 315 295 275 279 238 220 209 207 209 207 209 225 243 260 288 305 307 302 301 306 308 304 306 309 309 307 307 305 304 305 309 311 313 314 315 316 317 316 317 317 317 317 315 316 317 317 317 316 315 313 311 309 307
231 220 210 244 264 256 254 266 263 288 292 281 295 319 321 320 324 324 324 332 344 354 23 53 72 96 67 357 345 352 345 330 310 309 306 297 290 259 224 212 213 223 238 244 253 271 290 300 298 303 307 308 311 310 307 310 311 310 308 307 307 305 305 308 310 312 314 315 315 315 316 317 317 317 316 315 315 316 315 316 315 314 312 309 307 306
239 235 215 229 262 285 308 311 288 280 274 272 290 307 311 317 328 324 323 336 341 348 44 68 76 109 88 338 329 331 333 339 319 297 305 309 296 260 239 246 249 255 262 267 283 297 302 303 303 310 313 310 310 309 310 311 311 310 310 309 309 307 308 310 311 313 315 315 314 315 315 315 314 313 312 312 312 312 312 313 312 311 310 308 305 303
236 254 246 232 254 266 273 286 291 287 281 284 297 309 316 323 329 329 329 342 344 349 67 70 52 110 137 303 307 306 303 309 320 309 298 301 296 283 286 290 283 268 267 277 291 296 298 300 305 311 312 309 309 310 311 312 310 309 311 312 312 310 311 312 313 314 316 315 315 315 315 314 313 312 311 310 310 310 310 309 309 307 306 305 303 301
242 267 264 245 252 261 266 276 285 289 288 291 297 301 311 322 330 337 337 346 360 20 70 48 37 91 350 328 317 305 298 312 354 17 300 321 325 302 290 289 283 273 276 286 294 300 304 308 312 315 316 314 313 311 312 312 310 309 310 311 311 311 313 314 315 316 317 316 315 314 314 314 313 313 312 311 311 311 310 309 307 304 303 302 301 299
238 266 274 272 267 269 274 274 275 279 281 289 294 292 307 329 343 355 352 345 0 27 50 37 41 37 360 353 343 350 59 18 30 61 33 17 356 325 331 14 309 290 288 292 299 309 313 318 321 320 319 316 314 313 313 311 310 310 310 310 311 312 313 314 314 315 315 315 314 313 313 313 313 313 312 311 312 312 311 310 307 303 301 301 301 301
227 253 282 292 278 276 281 275 271 272 273 290 315 300 304 328 335 340 344 349 355 353 358 7 356 336 338 344 348 20 31 9 17 42 29 17 356 323 330 29 20 357 327 308 307 316 317 318 318 316 315 315 314 314 312 311 309 309 309 310 310 310 311 311 312 314 314 313 312 312 313 313 313 313 312 312 312 313 312 311 308 303 299 298 300 300
234 254 265 273 273 274 278 277 280 276 271 307 14 351 324 354 339 323 333 359 3 339 342 1 352 327 327 342 7 26 20 15 33 44 23 15 11 339 328 13 19 359 334 321 320 325 326 324 321 318 315 316 315 312 311 311 309 309 310 309 309 310 311 313 314 315 315 314 314 314 315 315 315 314 313 313 313 313 312 311 308 304 299 297 297 296
242 260 257 263 274 277 279 283 284 281 278 326 18 350 340 353 328 317 338 10 16 4 14 19 350 328 342 1 2 355 353 352 7 11 8 45 29 344 324 337 327 306 300 306 315 324 329 329 326 321 316 314 312 309 309 310 309 310 311 311 312 313 314 315 315 315 315 315 315 316 316 316 316 316 316 316 315 314 314 312 309 306 301 298 295 293
236 259 271 282 286 284 288 289 283 281 291 53 30 339 349 341 321 344 35 38 24 7 4 357 337 341 358 334 315 321 320 326 27 41 46 59 20 345 339 334 315 302 300 304 311 322 330 331 326 321 317 315 313 311 311 311 311 312 313 313 314 315 314 315 314 314 314 315 315 316 317 318 318 317 317 318 317 317 316 315 312 309 306 302 298 294
245 253 262 268 274 281 286 286 281 280 84 118 271 318 359 356 352 70 67 345 313 323 328 331 356 6 343 315 308 308 319 340 71 81 54 49 34 8 1 354 337 326 320 317 318 322 325 326 322 319 318 315 313 313 313 314 314 314 315 315 315 315 315 315 314 314 315 316 317 318 318 318 318 317 318 319 319 319 320 319 318 315 312 308 304 301
256 259 261 259 265 275 279 282 287 301 110 117 288 315 11 344 251 105 30 322 312 328 336 336 3 7 346 333 309 292 332 342 326 355 30 46 53 41 27 14 2 352 337 324 321 322 323 324 323 321 318 315 314 315 316 315 315 315 315 316 316 317 317 315 315 316 316 317 318 318 318 319 318 318 320 320 320 321 322 322 323 321 317 314 311 309
256 261 266 267 266 270 277 286 313 126 130 121 100 289 123 133 253 281 318 327 319 334 329 315 343 340 331 338 301 284 307 332 328 2 41 29 6 340 341 349 345 342 328 315 318 323 323 323 324 320 316 315 316 316 317 316 315 315 316 317 317 317 317 316 317 318 318 318 318 318 318 318 318 319 321 321 320 321 321 323 324 322 319 314 311 310
256 254 262 272 271 269 276 277 160 141 151 159 196 244 251 147 319 303 296 223 336 357 339 322 319 307 307 329 283 291 320 330 315 325 43 7 348 334 332 334 321 317 312 309 319 326 320 316 320 319 314 314 315 316 318 317 316 317 318 318 318 317 317 318 319 319 320 321 321 321 321 319 318 321 322 321 321 321 321 322 323 321 320 316 310 308
261 252 251 262 267 269 276 278 258 108 99 153 177 258 286 284 281 289 275 218 187 278 337 336 342 30 137 192 264 294 343 349 336 353 340 333 341 333 322 305 301 308 309 310 321 328 316 312 320 321 315 315 316 317 320 319 318 319 319 318 318 318 319 320 322 323 325 325 325 325 323 321 321 323 324 323 323 321 320 320 320 319 319 317 311 307
261 248 241 250 256 258 265 273 88 100 112 119 88 334 313 304 265 271 276 252 231 249 287 307 296 226 112 77 283 295 337 2 80 38 332 314 310 307 299 299 307 312 311 311 319 324 315 313 321 325 319 317 317 319 323 322 321 321 321 320 320 321 322 324 326 327 328 327 327 326 325 325 325 327 327 327 326 323 321 321 319 318 318 316 312 309
270 255 245 251 260 262 260 102 95 106 118 95 54 319 292 303 286 273 277 277 272 276 283 266 258 262 266 255 265 282 288 282 264 260 293 301 295 289 301 316 321 318 315 315 319 323 318 316 321 326 322 318 318 322 324 323 322 322 322 322 324 325 326 327 328 329 329 328 328 328 329 329 330 330 331 331 329 326 324 323 322 320 317 316 314 311
301 287 285 308 310 312 35 78 85 72 37 40 358 314 304 317 302 269 274 287 258 205 188 217 255 305 325 331 317 311 325 318 303 291 287 296 297 297 306 317 322 319 317 318 321 324 321 318 321 325 323 318 319 320 320 320 321 323 324 326 327 328 328 328 329 330 330 330 331 332 333 333 333 332 332 333 331 329 328 327 326 323 319 319 319 316
304 294 337 343 327 350 47 63 74 48 354 314 306 317 310 312 175 209 160 132 141 174 231 260 252 237 328 13 328 312 322 321 313 309 306 304 305 306 308 316 323 322 317 316 320 322 320 319 321 323 321 319 318 318 318 319 322 325 327 328 329 329 330 331 332 333 334 334 335 335 335 334 333 332 333 334 333 331 330 329 327 324 322 322 323 320
293 280 28 356 317 347 43 57 100 101 317 295 274 273 300 325 110 130 135 140 152 174 254 288 283 271 280 304 314 306 307 309 309 310 308 305 306 309 314 320 323 320 316 316 318 319 318 318 319 319 318 318 317 317 320 323 325 328 330 331 330 331 332 334 335 335 336 335 335 335 333 333 333 333 334 334 333 330 329 329 328 326 326 326 326 323
262 281 42 14 314 46 98 115 112 100 72 25 46 181 226 137 139 152 163 174 193 203 199 230 299 303 302 309 307 285 283 287 288 294 299 299 300 308 317 320 317 316 319 319 317 316 316 314 315 317 317 317 318 321 325 327 329 331 333 334 333 334 335 337 337 337 336 335 334 333 333 332 333 334 333 332 331 330 330 330 331 330 329 330 330 327
17 357 349 357 39 70 98 113 113 110 107 104 115 154 187 203 207 215 228 238 251 265 271 279 292 298 299 302 301 291 292 292 284 284 294 301 306 313 319 316 313 320 325 319 315 317 318 314 312 315 317 318 321 326 329 331 332 334 337 338 337 337 338 339 338 336 335 334 332 331 332 332 332 333 333 331 329 329 330 331 333 334 333 334 334 332
57 60 48 30 48 88 108 114 122 129 130 138 176 228 259 269 265 269 278 280 281 290 298 300 304 311 307 304 309 313 306 297 295 297 304 309 312 315 315 312 318 329 331 320 317 322 325 319 313 314 317 321 326 330 332 334 335 337 339 340 339 339 339 337 335 333 332 331 331 331 333 332 331 333 334 332 330 330 330 332 335 335 334 334 335 336
82 99 108 96 108 139 139 134 138 147 149 162 217 277 298 305 306 302 299 297 295 300 307 308 305 305 304 307 320 329 316 305 308 307 302 310 315 313 311 314 324 333 330 320 319 323 324 317 314 317 322 326 331 334 336 337 338 340 342 341 341 340 338 335 333 332 330 330 332 334 335 334 334 335 336 335 334 333 332 334 336 335 334 335 337 338
73 76 146 159 140 141 147 147 147 159 188 221 256 288 307 310 308 309 312 310 308 312 320 319 308 301 309 322 337 336 316 311 316 314 313 319 319 314 315 321 326 329 327 320 318 319 318 316 320 324 327 331 336 339 338 338 341 344 344 342 341 339 337 335 333 333 333 334 336 338 338 338 336 336 336 337 337 335 334 335 336 335 334 336 338 339
145 132 173 184 147 143 160 168 174 190 204 237 280 302 313 311 309 312 318 318 320 328 332 324 315 313 318 329 345 334 315 311 313 319 329 331 322 317 324 329 327 327 329 324 320 321 322 324 327 330 334 337 340 341 341 341 344 347 345 342 340 339 338 338 338 338 339 340 340 340 340 338 337 336 336 338 338 337 335 334 335 336 336 336 338 339
180 169 186 204 175 159 167 186 197 196 201 222 281 311 317 316 318 324 324 308 308 317 318 313 313 317 322 336 355 340 310 304 314 323 329 331 320 316 325 328 323 323 324 320 319 324 328 334 336 336 338 341 342 345 346 344 344 347 346 342 341 341 341 342 342 343 343 343 342 342 341 340 340 339 339 340 340 339 337 335 336 337 336 336 337 339
Height
3206 3205 3203 3201 3198 3198 3197 3197 3197 3198 3198 3196 3194 3191 3188 3187 3185 3187 3191 3193 3194 3195 3196 3197 3198 3200 3199 3196 3196 3199 3201 3200 3200 3200 3200 3200 3202 3202 3202 3201 3200 3199 3198 3197 3196 3195 3194 3194 3192 3192 3191 3189 3187 3186 3186 3185 3184 3185 3184 3181 3178 3180 3184 3184 3182 3180 3179 3179 3178 3178 3177 3177 3177 3176 3174 3173 3172 3171 3168 3165 3164 3165 3167 3166 3165 3166
3205 3205 3203 3199 3197 3197 3198 3199 3199 3199 3198 3196 3194 3190 3187 3185 3184 3185 3189 3191 3193 3194 3195 3196 3198 3199 3198 3196 3195 3196 3199 3199 3199 3199 3199 3199 3200 3201 3201 3200 3200 3199 3198 3197 3196 3194 3193 3193 3192 3191 3191 3189 3188 3186 3186 3184 3183 3182 3181 3179 3176 3176 3179 3182 3182 3180 3179 3178 3178 3177 3177 3177 3176 3176 3174 3172 3172 3171 3169 3166 3166 3166 3167 3167 3166 3166
3204 3203 3201 3198 3197 3198 3199 3200 3199 3199 3198 3196 3193 3190 3186 3185 3186 3187 3189 3191 3192 3193 3194 3194 3196 3197 3197 3196 3195 3196 3198 3200 3200 3199 3199 3199 3199 3199 3200 3200 3199 3199 3198 3196 3195 3194 3193 3192 3191 3190 3190 3189 3188 3187 3186 3184 3183 3183 3182 3180 3178 3176 3175 3176 3178 3179 3178 3178 3177 3177 3177 3176 3176 3175 3173 3170 3170 3170 3169 3168 3167 3167 3166 3165 3166 3167
3202 3201 3199 3197 3198 3198 3199 3199 3199 3197 3196 3194 3192 3189 3186 3185 3187 3187 3188 3188 3189 3190 3191 3192 3194 3195 3196 3197 3198 3197 3197 3199 3200 3199 3199 3198 3198 3198 3199 3199 3199 3198 3198 3196 3194 3193 3192 3191 3190 3190 3189 3188 3188 3187 3186 3185 3184 3183 3182 3182 3181 3179 3177 3175 3176 3177 3177 3177 3176 3176 3176 3175 3173 3170 3168 3167 3169 3170 3169 3168 3167 3167 3166 3165 3165 3166
3200 3200 3198 3198 3198 3199 3199 3199 3197 3196 3193 3190 3188 3187 3185 3185 3187 3188 3188 3187 3186 3185 3187 3189 3191 3192 3194 3197 3197 3196 3196 3197 3198 3198 3198 3197 3197 3198 3198 3198 3198 3198 3197 3196 3194 3193 3192 3191 3190 3190 3189 3188 3187 3187 3186 3185 3184 3184 3183 3182 3181 3181 3180 3178 3178 3178 3177 3176 3175 3174 3174 3173 3170 3167 3167 3168 3169 3170 3169 3168 3167 3166 3166 3166 3166 3166
3199 3199 3198 3197 3198 3199 3199 3198 3196 3195 3192 3188 3186 3186 3186 3187 3188 3189 3189 3187 3185 3183 3183 3186 3188 3189 3193 3196 3195 3194 3194 3194 3195 3196 3197 3197 3197 3197 3197 3198 3198 3197 3197 3196 3194 3193 3192 3191 3190 3190 3189 3188 3187 3187 3186 3185 3185 3184 3183 3183 3182 3181 3180 3180 3179 3179 3178 3177 3176 3175 3174 3173 3172 3170 3170 3170 3170 3170 3169 3169 3168 3167 3167 3167 3166 3166
3198 3198 3198 3197 3198 3198 3198 3196 3195 3194 3191 3188 3188 3188 3189 3190 3189 3189 3188 3186 3185 3183 3183 3185 3186 3187 3191 3194 3194 3193 3193 3193 3192 3193 3195 3196 3197 3196 3196 3197 3197 3197 3196 3195 3194 3193 3192 3191 3190 3190 3189 3188 3188 3187 3186 3185 3185 3184 3184 3183 3182 3182 3181 3180 3180 3179 3178 3178 3177 3176 3175 3174 3173 3172 3171 3170 3170 3170 3170 3170 3169 3168 3168 3167 3167 3167
3197 3197 3197 3197 3198 3199 3197 3195 3193 3193 3191 3188 3189 3190 3190 3190 3189 3188 3188 3187 3185 3184 3183 3183 3184 3186 3191 3194 3194 3192 3191 3192 3192 3192 3194 3195 3195 3195 3195 3197 3198 3197 3196 3195 3194 3193 3192 3191 3190 3189 3189 3188 3188 3187 3186 3185 3185 3185 3184 3183 3183 3182 3181 3180 3180 3179 3178 3178 3177 3176 3176 3175 3174 3173 3172 3171 3170 3170 3170 3170 3169 3169 3168 3168 3167 3166
3196 3196 3196 3196 3198 3197 3196 3193 3193 3193 3191 3189 3190 3191 3191 3190 3189 3188 3187 3186 3184 3182 3183 3183 3184 3186 3188 3190 3192 3191 3190 3190 3191 3191 3193 3194 3194 3194 3194 3196 3198 3197 3196 3195 3194 3192 3191 3191 3190 3190 3189 3188 3188 3187 3186 3185 3185 3185 3184 3183 3183 3182 3181 3180 3179 3179 3178 3177 3177 3176 3176 3175 3174 3173 3173 3172 3171 3171 3170 3170 3169 3169 3168 3167 3167 3166
3194 3195 3195 3195 3196 3196 3193 3192 3193 3193 3192 3191 3191 3191 3191 3189 3187 3186 3185 3184 3183 3184 3184 3183 3183 3184 3185 3187 3190 3192 3190 3188 3189 3191 3192 3193 3193 3193 3193 3195 3196 3195 3195 3194 3192 3191 3191 3191 3191 3190 3189 3189 3188 3187 3186 3185 3185 3184 3184 3183 3182 3182 3181 3180 3179 3179 3178 3177 3177 3176 3176 3175 3174 3173 3173 3172 3172 3171 3170 3170 3169 3169 3168 3168 3167 3166
3192 3193 3194 3193 3194 3194 3193 3192 3193 3194 3193 3192 3192 3191 3189 3186 3183 3183 3184 3184 3184 3185 3184 3182 3181 3180 3183 3187 3189 3191 3192 3188 3186 3188 3190 3191 3191 3192 3192 3194 3195 3194 3194 3192 3189 3190 3191 3191 3191 3190 3189 3189 3188 3187 3186 3185 3185 3184 3183 3183 3182 3181 3181 3180 3179 3178 3178 3177 3177 3176 3175 3175 3174 3174 3173 3172 3172 3171 3171 3170 3170 3169 3168 3168 3167 3166
3191 3192 3193 3193 3193 3193 3193 3192 3193 3193 3193 3192 3192 3190 3187 3184 3182 3181 3181 3182 3183 3183 3181 3180 3179 3179 3182 3188 3190 3190 3192 3190 3186 3187 3189 3190 3189 3190 3191 3193 3194 3193 3193 3191 3189 3190 3191 3190 3190 3189 3189 3188 3187 3187 3186 3185 3184 3184 3183 3182 3182 3181 3180 3179 3179 3178 3178 3177 3177 3176 3175 3175 3174 3173 3173 3172 3172 3171 3171 3170 3170 3169 3168 3168 3167 3166
3190 3190 3191 3192 3193 3192 3193 3192 3192 3192 3191 3191 3188 3186 3185 3182 3181 3180 3176 3177 3180 3180 3178 3178 3178 3181 3185 3188 3189 3190 3192 3191 3189 3189 3190 3190 3189 3188 3190 3192 3192 3193 3192 3191 3190 3191 3190 3189 3188 3188 3188 3188 3187 3187 3186 3185 3185 3184 3183 3182 3182 3181 3180 3180 3179 3178 3178 3177 3177 3176 3175 3175 3174 3173 3173 3172 3172 3171 3170 3170 3169 3168 3168 3167 3166 3165
3187 3188 3190 3191 3191 3191 3191 3191 3191 3189 3188 3187 3184 3183 3182 3179 3180 3180 3175 3175 3177 3176 3176 3177 3179 3183 3186 3188 3188 3189 3191 3190 3191 3192 3192 3191 3190 3189 3191 3193 3192 3192 3191 3191 3191 3191 3188 3187 3187 3188 3187 3187 3187 3186 3186 3185 3185 3184 3183 3182 3182 3181 3180 3180 3179 3179 3178 3177 3177 3176 3175 3175 3174 3173 3173 3172 3171 3171 3170 3169 3168 3168 3167 3166 3165 3164
3183 3183 3185 3188 3188 3188 3189 3190 3190 3189 3187 3185 3183 3181 3179 3177 3179 3178 3175 3176 3178 3177 3176 3178 3180 3183 3186 3189 3190 3190 3191 3189 3189 3192 3193 3192 3191 3190 3191 3192 3192 3192 3191 3190 3191 3190 3187 3186 3187 3187 3187 3187 3186 3186 3186 3185 3185 3184 3183 3183 3182 3181 3181 3180 3179 3179 3178 3177 3177 3176 3175 3175 3174 3173 3172 3171 3171 3170 3169 3168 3168 3167 3166 3165 3164 3163
3181 3180 3181 3183 3185 3186 3188 3189 3189 3189 3187 3185 3184 3182 3178 3179 3180 3177 3177 3180 3180 3179 3179 3179 3182 3184 3186 3190 3191 3192 3193 3190 3188 3192 3194 3194 3194 3193 3193 3193 3193 3193 3191 3190 3189 3188 3187 3188 3188 3188 3188 3187 3186 3186 3185 3185 3185 3184 3184 3183 3182 3182 3181 3180 3180 3179 3178 3177 3177 3176 3175 3174 3174 3173 3172 3171 3170 3169 3168 3167 3166 3165 3164 3163 3162 3161
3179 3178 3178 3180 3183 3186 3187 3187 3188 3188 3186 3184 3183 3181 3179 3181 3181 3178 3178 3180 3180 3180 3180 3180 3183 3185 3187 3191 3194 3194 3194 3191 3191 3194 3195 3195 3195 3193 3193 3193 3193 3192 3192 3192 3191 3190 3190 3190 3190 3190 3189 3187 3186 3186 3185 3185 3185 3185 3184 3184 3183 3182 3181 3180 3180 3179 3178 3177 3176 3176 3175 3174 3173 3172 3171 3170 3169 3168 3167 3166 3165 3164 3163 3162 3161 3159
3177 3176 3176 3178 3181 3184 3185 3187 3187 3187 3186 3185 3182 3179 3179 3180 3181 3179 3179 3179 3180 3181 3180 3180 3184 3187 3190 3194 3196 3195 3194 3192 3192 3194 3195 3196 3196 3195 3193 3193 3193 3194 3196 3198 3196 3195 3195 3193 3192 3191 3189 3188 3187 3186 3186 3186 3185 3185 3184 3184 3183 3182 3181 3180 3180 3179 3177 3177 3176 3175 3174 3173 3172 3170 3169 3168 3167 3166 3165 3164 3163 3162 3161 3160 3158 3157
3179 3177 3177 3180 3181 3181 3184 3186 3186 3185 3186 3186 3183 3182 3183 3183 3181 3180 3180 3180 3181 3181 3180 3179 3183 3188 3192 3195 3195 3194 3193 3193 3192 3193 3195 3195 3195 3196 3197 3195 3196 3198 3200 3201 3199 3198 3197 3195 3193 3191 3189 3188 3187 3187 3186 3186 3185 3185 3184 3184 3183 3182 3181 3180 3179 3178 3177 3176 3175 3174 3172 3171 3170 3169 3168 3167 3165 3164 3163 3162 3161 3160 3158 3157 3156 3154
3181 3179 3179 3181 3181 3181 3184 3185 3184 3182 3183 3185 3185 3184 3184 3184 3183 3181 3180 3181 3180 3180 3179 3178 3183 3190 3193 3194 3194 3193 3193 3193 3193 3192 3192 3191 3191 3192 3195 3196 3196 3198 3199 3198 3197 3197 3196 3194 3192 3191 3189 3188 3188 3187 3186 3185 3185 3184 3183 3183 3182 3181 3180 3179 3178 3177 3176 3175 3174 3172 3171 3170 3168 3167 3166 3165 3163 3162 3160 3159 3158 3156 3155 3154 3152 3151
3181 3180 3180 3181 3182 3182 3183 3183 3182 3180 3180 3183 3185 3184 3183 3183 3183 3182 3182 3181 3179 3178 3177 3179 3187 3194 3194 3194 3194 3192 3191 3191 3191 3191 3190 3190 3190 3189 3190 3192 3192 3193 3194 3194 3193 3193 3193 3192 3190 3189 3188 3188 3187 3186 3185 3184 3184 3183 3183 3182 3181 3180 3179 3178 3177 3176 3175 3174 3172 3171 3170 3168 3167 3165 3164 3163 3161 3160 3158 3156 3155 3153 3152 3151 3149 3148
3181 3180 3180 3181 3182 3182 3182 3181 3181 3179 3180 3183 3184 3183 3183 3182 3183 3183 3181 3181 3180 3179 3177 3180 3191 3196 3194 3194 3194 3191 3190 3189 3189 3190 3190 3191 3190 3188 3188 3188 3189 3191 3192 3191 3190 3189 3189 3188 3188 3187 3188 3187 3186 3185 3184 3183 3183 3182 3182 3181 3180 3179 3177 3176 3176 3175 3174 3172 3171 3169 3168 3166 3165 3163 3162 3160 3159 3157 3156 3154 3152 3150 3149 3147 3146 3145
3181 3181 3180 3178 3179 3181 3181 3181 3181 3181 3183 3184 3184 3184 3183 3182 3182 3182 3181 3180 3181 3180 3178 3180 3189 3194 3193 3193 3193 3191 3191 3190 3189 3190 3190 3190 3189 3189 3188 3188 3189 3189 3189 3189 3189 3188 3187 3186 3186 3187 3187 3186 3185 3184 3183 3182 3182 3181 3180 3179 3178 3177 3175 3174 3174 3173 3172 3170 3169 3167 3166 3164 3163 3161 3160 3158 3156 3154 3153 3151 3149 3147 3146 3144 3143 3142
3181 3181 3180 3178 3177 3179 3182 3183 3183 3184 3185 3185 3184 3183 3182 3182 3182 3182 3181 3181 3180 3180 3180 3181 3188 3193 3193 3192 3192 3190 3190 3190 3189 3189 3189 3189 3189 3188 3188 3189 3189 3188 3187 3187 3187 3186 3185 3185 3186 3187 3186 3185 3184 3184 3182 3181 3181 3180 3179 3178 3177 3176 3174 3173 3172 3170 3169 3168 3166 3165 3163 3162 3160 3159 3157 3155 3153 3152 3150 3148 3146 3144 3142 3141 3139 3138
3180 3180 3181 3180 3177 3177 3180 3182 3183 3184 3185 3184 3183 3182 3183 3183 3183 3182 3181 3181 3181 3181 3182 3184 3189 3193 3192 3191 3191 3191 3190 3189 3189 3189 3188 3188 3188 3188 3188 3188 3188 3188 3187 3187 3186 3185 3185 3185 3185 3185 3185 3184 3183 3182 3181 3180 3179 3179 3178 3177 3176 3175 3173 3171 3170 3168 3167 3165 3163 3162 3160 3158 3157 3155 3154 3152 3150 3148 3147 3145 3143 3141 3139 3138 3136 3135
3180 3179 3181 3181 3179 3177 3179 3182 3184 3185 3185 3185 3183 3183 3183 3183 3183 3183 3181 3181 3183 3184 3185 3187 3190 3192 3192 3191 3191 3191 3191 3189 3188 3188 3188 3188 3187 3188 3188 3187 3187 3187 3186 3186 3185 3185 3185 3184 3183 3183 3184 3183 3182 3180 3179 3178 3177 3177 3176 3175 3174 3173 3172 3170 3168 3166 3165 3163 3161 3159 3157 3155 3153 3152 3150 3149 3147 3145 3143 3142 3139 3138 3136 3135 3133 3132
3180 3179 3179 3180 3180 3180 3181 3183 3184 3184 3184 3184 3183 3183 3183 3183 3183 3183 3183 3184 3184 3184 3186 3189 3191 3191 3191 3192 3192 3192 3191 3189 3189 3188 3188 3187 3187 3187 3187 3187 3187 3186 3185 3184 3184 3184 3184 3183 3182 3182 3182 3181 3180 3179 3178 3177 3176 3175 3174 3173 3172 3171 3169 3168 3166 3164 3162 3160 3158 3157 3155 3153 3151 3149 3147 3145 3144 3142 3140 3139 3137 3135 3133 3132 3130 3129
3180 3179 3178 3180 3181 3181 3182 3182 3183 3183 3183 3183 3182 3182 3183 3183 3183 3183 3184 3185 3185 3185 3188 3190 3191 3191 3191 3191 3191 3190 3189 3189 3189 3188 3188 3187 3187 3187 3187 3186 3186 3185 3184 3184 3184 3183 3183 3182 3181 3181 3180 3179 3179 3178 3176 3176 3174 3173 3172 3171 3169 3168 3166 3165 3163 3161 3159 3158 3156 3154 3152 3150 3148 3146 3144 3142 3140 3139 3137 3135 3134 3132 3130 3129 3127 3126
3181 3179 3178 3179 3181 3181 3181 3182 3182 3183 3182 3182 3183 3183 3183 3183 3184 3184 3184 3186 3186 3187 3190 3190 3190 3191 3190 3189 3188 3188 3188 3188 3188 3188 3187 3187 3187 3186 3186 3186 3185 3184 3184 3184 3184 3182 3181 3181 3180 3179 3179 3178 3177 3176 3175 3174 3173 3172 3170 3169 3167 3165 3163 3162 3160 3158 3156 3155 3152 3150 3148 3146 3144 3142 3141 3139 3137 3135 3133 3131 3130 3129 3127 3126 3125 3124
3181 3180 3178 3179 3181 3181 3181 3181 3182 3182 3182 3182 3182 3182 3183 3184 3184 3185 3185 3186 3188 3189 3190 3190 3190 3190 3188 3188 3187 3187 3187 3187 3186 3186 3186 3186 3185 3184 3184 3185 3184 3183 3183 3183 3183 3182 3181 3180 3179 3178 3177 3176 3176 3175 3174 3173 3171 3170 3168 3167 3165 3163 3161 3159 3157 3156 3154 3152 3149 3147 3145 3143 3141 3139 3137 3135 3133 3132 3130 3128 3127 3125 3124 3123 3122 3121
3180 3180 3180 3181 3181 3180 3180 3180 3181 3181 3182 3181 3181 3181 3183 3184 3185 3186 3187 3187 3188 3189 3190 3190 3190 3188 3187 3187 3186 3186 3187 3187 3187 3187 3187 3186 3185 3183 3183 3184 3183 3182 3182 3182 3182 3181 3180 3179 3178 3177 3176 3175 3174 3173 3172 3171 3169 3167 3166 3164 3163 3161 3159 3157 3155 3153 3151 3149 3147 3144 3142 3140 3138 3136 3134 3132 3130 3128 3126 3125 3123 3122 3121 3120 3119 3118
3179 3180 3181 3181 3181 3180 3180 3180 3179 3180 3180 3180 3180 3182 3184 3184 3185 3187 3188 3187 3188 3189 3189 3189 3189 3188 3187 3187 3186 3186 3187 3187 3187 3187 3187 3186 3185 3184 3183 3183 3182 3181 3180 3180 3180 3180 3179 3178 3177 3176 3175 3174 3172 3171 3170 3168 3166 3165 3164 3162 3160 3158 3156 3154 3152 3150 3148 3145 3143 3141 3139 3136 3134 3132 3130 3129 3127 3125 3123 3121 3120 3118 3117 3116 3115 3114
3179 3180 3180 3180 3180 3179 3179 3179 3178 3178 3179 3181 3182 3184 3185 3184 3186 3188 3188 3188 3188 3188 3187 3187 3188 3189 3188 3187 3187 3187 3187 3187 3187 3187 3187 3186 3186 3184 3184 3183 3182 3181 3180 3179 3178 3178 3177 3177 3175 3174 3173 3172 3170 3169 3167 3166 3164 3162 3161 3159 3157 3155 3153 3151 3148 3146 3144 3142 3140 3137 3135 3133 3131 3129 3127 3125 3123 3122 3120 3118 3117 3115 3114 3113 3112 3111
3179 3179 3179 3180 3180 3179 3178 3178 3177 3176 3179 3182 3184 3185 3186 3186 3187 3187 3187 3188 3188 3187 3186 3186 3187 3188 3187 3187 3187 3187 3187 3187 3187 3187 3186 3186 3186 3184 3183 3182 3181 3180 3179 3178 3177 3177 3176 3175 3174 3172 3170 3169 3167 3166 3164 3163 3161 3160 3158 3156 3154 3152 3150 3147 3145 3143 3141 3138 3136 3134 3132 3129 3127 3125 3123 3122 3120 3118 3117 3115 3114 3112 3111 3110 3109 3108
3178 3179 3179 3180 3180 3178 3178 3177 3175 3175 3179 3182 3183 3184 3186 3187 3188 3187 3186 3186 3187 3186 3185 3185 3186 3187 3187 3187 3187 3187 3186 3186 3186 3186 3186 3186 3186 3185 3183 3181 3180 3178 3177 3176 3175 3174 3173 3173 3172 3170 3168 3166 3165 3163 3162 3160 3158 3157 3155 3153 3151 3149 3146 3144 3142 3139 3137 3135 3133 3131 3129 3126 3124 3122 3120 3119 3117 3115 3114 3112 3111 3109 3108 3107 3106 3105
3177 3178 3178 3178 3178 3178 3177 3176 3176 3178 3181 3183 3184 3185 3186 3186 3187 3187 3185 3185 3186 3186 3185 3185 3185 3186 3187 3187 3187 3186 3186 3186 3186 3186 3186 3186 3185 3185 3183 3182 3180 3179 3176 3174 3173 3172 3170 3170 3169 3167 3165 3164 3162 3161 3159 3157 3155 3154 3152 3150 3147 3145 3143 3141 3139 3137 3135 3132 3130 3128 3126 3124 3121 3119 3118 3116 3115 3113 3111 3110 3109 3107 3106 3104 3103 3102
3177 3177 3177 3177 3177 3177 3176 3176 3177 3179 3181 3183 3185 3186 3185 3185 3186 3186 3185 3185 3185 3185 3185 3186 3186 3186 3187 3187 3186 3186 3186 3186 3185 3185 3185 3185 3184 3182 3182 3181 3180 3178 3176 3173 3172 3170 3168 3167 3166 3164 3162 3160 3159 3158 3157 3154 3152 3151 3149 3146 3144 3142 3140 3138 3136 3134 3132 3130 3128 3125 3123 3121 3119 3117 3116 3114 3113 3111 3110 3108 3107 3105 3104 3102 3101 3100
3176 3177 3177 3177 3176 3176 3175 3175 3177 3179 3181 3184 3185 3185 3184 3184 3185 3184 3184 3185 3185 3185 3185 3185 3186 3186 3186 3186 3185 3185 3185 3185 3184 3184 3184 3184 3183 3181 3180 3179 3178 3176 3174 3171 3171 3170 3166 3164 3164 3161 3158 3157 3157 3156 3154 3152 3149 3147 3145 3143 3141 3139 3137 3135 3133 3131 3129 3127 3125 3123 3121 3118 3117 3115 3114 3112 3111 3109 3108 3107 3105 3103 3102 3101 3099 3098
3175 3175 3176 3176 3176 3176 3175 3174 3176 3179 3182 3183 3184 3184 3183 3183 3184 3185 3184 3184 3185 3185 3184 3184 3184 3184 3185 3185 3185 3184 3184 3184 3183 3183 3183 3183 3182 3181 3179 3177 3175 3174 3172 3168 3168 3168 3164 3161 3162 3160 3156 3154 3153 3153 3151 3149 3146 3144 3142 3140 3138 3136 3134 3132 3130 3128 3126 3124 3122 3121 3119 3117 3115 3113 3112 3110 3109 3107 3106 3105 3103 3101 3100 3099 3097 3096
3173 3174 3174 3175 3175 3175 3174 3174 3176 3180 3182 3183 3184 3184 3183 3182 3183 3184 3184 3184 3184 3184 3184 3184 3184 3183 3184 3184 3184 3183 3183 3183 3182 3183 3182 3180 3179 3178 3176 3174 3172 3171 3169 3166 3166 3166 3162 3159 3160 3159 3155 3151 3149 3149 3149 3146 3143 3142 3140 3137 3135 3134 3132 3130 3128 3126 3124 3122 3120 3119 3117 3115 3113 3112 3110 3108 3107 3105 3104 3103 3101 3099 3098 3097 3095 3093
3172 3172 3173 3173 3173 3172 3172 3174 3177 3180 3181 3182 3183 3183 3182 3182 3183 3183 3183 3183 3183 3182 3183 3183 3182 3182 3182 3183 3182 3182 3181 3181 3181 3181 3181 3178 3176 3175 3173 3171 3169 3168 3166 3164 3163 3163 3161 3157 3157 3157 3154 3150 3147 3146 3145 3143 3141 3139 3137 3135 3133 3132 3130 3128 3126 3124 3122 3120 3118 3117 3115 3113 3112 3110 3109 3107 3105 3104 3102 3101 3099 3097 3096 3094 3093 3091
3172 3172 3172 3172 3173 3173 3173 3175 3178 3179 3180 3181 3182 3181 3181 3182 3182 3182 3182 3182 3182 3181 3181 3181 3181 3181 3181 3182 3181 3180 3180 3180 3179 3178 3178 3176 3174 3172 3170 3169 3167 3166 3163 3161 3160 3160 3158 3156 3154 3154 3152 3149 3147 3145 3143 3141 3140 3138 3136 3134 3132 3130 3128 3126 3124 3122 3121 3119 3117 3115 3113 3112 3110 3109 3107 3106 3104 3102 3101 3099 3097 3095 3093 3092 3090 3089
3173 3173 3173 3173 3174 3175 3176 3177 3179 3181 3180 3180 3181 3180 3179 3180 3181 3181 3181 3182 3181 3181 3180 3180 3180 3181 3181 3181 3180 3180 3179 3178 3176 3175 3175 3174 3172 3170 3168 3166 3165 3163 3161 3159 3159 3158 3156 3153 3152 3151 3150 3147 3146 3144 3142 3140 3138 3136 3134 3132 3130 3128 3126 3124 3123 3121 3119 3117 3115 3114 3112 3110 3109 3107 3106 3104 3102 3100 3099 3097 3095 3093 3091 3090 3088 3086
3173 3174 3175 3175 3176 3177 3179 3179 3180 3181 3180 3179 3179 3179 3179 3179 3181 3181 3181 3181 3181 3181 3180 3179 3179 3179 3180 3180 3180 3178 3178 3178 3176 3173 3172 3172 3170 3167 3165 3164 3163 3161 3159 3158 3157 3156 3154 3152 3150 3149 3148 3146 3144 3142 3140 3139 3137 3135 3133 3131 3129 3127 3125 3123 3121 3120 3118 3116 3114 3112 3111 3109 3108 3106 3104 3103 3101 3099 3097 3096 3094 3091 3089 3088 3086 3084
3174 3174 3175 3176 3177 3178 3179 3179 3180 3180 3179 3179 3179 3179 3179 3180 3180 3181 3180 3180 3179 3179 3179 3178 3178 3177 3177 3178 3178 3177 3176 3176 3176 3172 3170 3169 3167 3165 3163 3162 3160 3159 3159 3157 3156 3155 3153 3150 3149 3147 3146 3144 3142 3140 3139 3137 3135 3133 3131 3130 3127 3126 3124 3122 3120 3118 3117 3115 3113 3111 3110 3108 3106 3105 3103 3101 3099 3097 3095 3094 3092 3090 3088 3086 3084 3082
3175 3175 3175 3175 3176 3177 3178 3179 3180 3180 3180 3179 3179 3178 3178 3179 3179 3178 3178 3178 3178 3178 3177 3177 3177 3176 3174 3175 3176 3175 3173 3173 3172 3170 3168 3166 3164 3162 3161 3160 3158 3159 3158 3155 3153 3152 3151 3148 3147 3145 3144 3142 3140 3139 3137 3135 3134 3132 3130 3128 3126 3124 3122 3121 3119 3117 3116 3114 3112 3111 3109 3107 3105 3104 3102 3100 3098 3096 3094 3092 3090 3089 3087 3084 3082 3080
3176 3177 3176 3176 3177 3178 3179 3180 3180 3179 3179 3179 3178 3178 3178 3178 3178 3178 3178 3177 3177 3177 3177 3176 3175 3174 3172 3172 3172 3172 3171 3169 3169 3168 3166 3164 3162 3161 3160 3158 3158 3158 3156 3152 3150 3150 3148 3147 3145 3143 3142 3141 3139 3137 3136 3134 3132 3130 3129 3127 3125 3123 3122 3120 3118 3116 3114 3113 3111 3109 3108 3106 3104 3102 3101 3099 3097 3095 3093 3091 3089 3088 3086 3084 3081 3079
3176 3177 3177 3177 3177 3177 3179 3180 3179 3179 3178 3178 3177 3177 3177 3177 3177 3177 3176 3176 3176 3176 3175 3175 3174 3173 3171 3170 3170 3170 3168 3167 3166 3166 3164 3162 3160 3160 3159 3158 3158 3157 3153 3150 3148 3147 3146 3145 3144 3142 3141 3139 3138 3136 3135 3133 3131 3130 3128 3126 3124 3123 3121 3119 3117 3115 3113 3112 3110 3108 3106 3105 3103 3101 3100 3098 3096 3094 3092 3090 3088 3086 3084 3083 3080 3078
3177 3177 3177 3176 3177 3177 3178 3179 3178 3178 3178 3177 3177 3177 3176 3176 3176 3176 3175 3174 3173 3174 3173 3173 3173 3171 3169 3169 3169 3168 3167 3165 3164 3163 3162 3160 3159 3158 3158 3157 3156 3155 3152 3149 3147 3145 3145 3144 3142 3140 3139 3138 3136 3135 3133 3132 3130 3129 3127 3125 3123 3122 3120 3118 3116 3115 3113 3111 3109 3107 3105 3104 3102 3100 3098 3097 3095 3093 3091 3089 3088 3086 3083 3081 3079 3077
3176 3176 3176 3177 3177 3178 3178 3178 3178 3178 3177 3176 3176 3176 3176 3175 3175 3175 3175 3173 3172 3172 3172 3172 3171 3170 3168 3168 3168 3167 3166 3164 3163 3161 3160 3159 3157 3156 3156 3155 3153 3152 3152 3149 3146 3144 3143 3142 3140 3139 3138 3137 3135 3134 3132 3131 3129 3127 3126 3124 3122 3121 3119 3117 3115 3114 3112 3110 3108 3106 3104 3103 3101 3099 3097 3096 3094 3092 3090 3088 3087 3085 3083 3080 3078 3076
3174 3175 3176 3177 3177 3177 3178 3177 3177 3177 3177 3176 3176 3176 3175 3175 3174 3173 3173 3173 3172 3171 3170 3170 3169 3169 3168 3167 3167 3167 3165 3163 3161 3160 3159 3158 3156 3155 3155 3154 3152 3150 3150 3149 3146 3143 3141 3140 3139 3138 3137 3136 3134 3133 3132 3130 3128 3126 3125 3123 3121 3119 3118 3116 3114 3113 3111 3109 3107 3105 3104 3102 3100 3098 3097 3095 3093 3091 3089 3087 3085 3084 3082 3079 3077 3075